Weather History for Dumas, TX

Change the Weather History Date:

Friday, November 9, 2012

  Actual Average (KBGD) Record (KBGD)
Temperature  
Mean Temperature 62 °F 51 °F  
Max Temperature 77 °F 64 °F 83 °F (1999)
Min Temperature 48 °F 38 °F 22 °F (1950)
Degree Days  
Heating Degree Days 2 14  
Month to date heating degree days 111  
Since 1 July heating degree days 332  
Cooling Degree Days 0 0  
Month to date cooling degree days 0  
Year to date cooling degree days 1835  
Growing Degree Days 12 (Base 50)    
Moisture  
Dew Point 32 °F    
Average Humidity 32    
Maximum Humidity 47    
Minimum Humidity 18    
Precipitation  
Precipitation 0.00 in 0.03 in 0.18 in (1979)
Month to date precipitation 0.31  
Year to date precipitation 20.42  
Snow  
Snow 0.00 in - - ()
Month to date snowfall  
Since 1 July snowfall  
Since 1 September snowfall  
Snow Depth -    
Sea Level Pressure  
Sea Level Pressure 29.81 in    
Wind  
Wind Speed 17 mph (SW)    
Max Wind Speed 30 mph    
Max Gust Speed 38 mph    
Visibility 10 miles    
Events      
T = Trace of Precipitation, MM = Missing Value Source: NWS Daily Summary

Daily Weather History Graph

Daily Weather History Graph

Search for Another Location

Airport:

Trip Planner

Search our weather history database for the weather conditions in past years. The results will help you decide how hot, cold, wet, or windy it might be!

Date:

Astronomy

Nov. 09, 2012 Rise Set
Actual Time 7:18 AM CST 5:44 PM CST
Civil Twilight 6:51 AM CST 6:11 PM CST
Nautical Twilight 6:21 AM CST 6:42 PM CST
Astronomical Twilight 5:51 AM CST 7:12 PM CST
Moon 2:28 AM CST (11/9) 2:51 PM CST (11/9)
Length of Visible Light 11h 19m
Length of Day
10h 25m
Waning Crescent, 23% of the Moon is Illuminated
Nov 9
Waning Crescent
Nov 13
New
Nov 20
First Quarter
Nov 28
Full
Dec 6
Last Quarter

Hourly Weather History & Observations

Time (CST) Temp. Dew Point Humidity Pressure Visibility Wind Dir Wind Speed Gust Speed Precip Events Conditions
12:15 AM 59.0 °F 28.4 °F 31% 29.86 in 10.0 mi SW 12.7 mph - N/A   Clear
12:35 AM 57.2 °F 28.4 °F 33% 29.86 in 10.0 mi SW 11.5 mph - N/A   Clear
12:55 AM 53.6 °F 28.4 °F 38% 29.85 in 10.0 mi WSW 11.5 mph - N/A   Clear
1:15 AM 51.8 °F 28.4 °F 41% 29.86 in 10.0 mi South 12.7 mph - N/A   Clear
1:35 AM 53.6 °F 28.4 °F 38% 29.85 in 10.0 mi South 10.4 mph - N/A   Clear
1:55 AM 53.6 °F 28.4 °F 38% 29.85 in 10.0 mi SSW 10.4 mph - N/A   Clear
2:15 AM 51.8 °F 28.4 °F 41% 29.84 in 10.0 mi SSW 10.4 mph - N/A   Clear
2:35 AM 51.8 °F 28.4 °F 41% 29.84 in 10.0 mi SSW 9.2 mph - N/A   Clear
2:55 AM 51.8 °F 28.4 °F 41% 29.84 in 10.0 mi SSW 11.5 mph - N/A   Clear
3:15 AM 55.4 °F 28.4 °F 36% 29.83 in 10.0 mi SSW 12.7 mph - N/A   Clear
3:35 AM 53.6 °F 28.4 °F 38% 29.83 in 10.0 mi SSW 11.5 mph - N/A   Clear
3:55 AM 53.6 °F 28.4 °F 38% 29.83 in 10.0 mi SSW 12.7 mph - N/A   Clear
4:15 AM 53.6 °F 28.4 °F 38% 29.83 in 10.0 mi SSW 11.5 mph - N/A   Clear
4:35 AM 51.8 °F 28.4 °F 41% 29.83 in 10.0 mi SSW 10.4 mph - N/A   Clear
4:55 AM 50.0 °F 28.4 °F 43% 29.82 in 10.0 mi SSW 9.2 mph - N/A   Clear
5:15 AM 50.0 °F 30.2 °F 47% 29.82 in 10.0 mi SSW 12.7 mph - N/A   Clear
5:55 AM 50.0 °F 30.2 °F 47% 29.82 in 10.0 mi SSW 13.8 mph - N/A   Clear
6:15 AM 51.8 °F 30.2 °F 44% 29.82 in 10.0 mi SSW 13.8 mph - N/A   Clear
6:35 AM 50.0 °F 28.4 °F 43% 29.82 in 10.0 mi SW 13.8 mph - N/A   Clear
6:55 AM 50.0 °F 28.4 °F 43% 29.82 in 10.0 mi SW 11.5 mph - N/A   Clear
7:35 AM 48.2 °F 28.4 °F 46% 29.82 in 10.0 mi SW 12.7 mph - N/A   Clear
7:55 AM 50.0 °F 30.2 °F 47% 29.83 in 10.0 mi SW 12.7 mph - N/A   Clear
8:15 AM 51.8 °F 30.2 °F 44% 29.84 in 10.0 mi SSW 13.8 mph - N/A   Clear
8:35 AM 55.4 °F 30.2 °F 38% 29.84 in 10.0 mi SW 15.0 mph - N/A   Clear
8:55 AM 57.2 °F 30.2 °F 36% 29.85 in 10.0 mi SW 18.4 mph 24.2 mph N/A   Clear
9:15 AM 59.0 °F 30.2 °F 34% 29.85 in 10.0 mi SW 20.7 mph - N/A   Clear
9:35 AM 60.8 °F 28.4 °F 29% 29.84 in 10.0 mi SW 18.4 mph - N/A   Clear
9:55 AM 62.6 °F 28.4 °F 27% 29.84 in 10.0 mi SW 19.6 mph 25.3 mph N/A   Clear
10:15 AM 66.2 °F 28.4 °F 24% 29.84 in 10.0 mi SW 19.6 mph 25.3 mph N/A   Clear
10:35 AM 68.0 °F 28.4 °F 23% 29.84 in 10.0 mi SW 19.6 mph 23.0 mph N/A   Clear
10:55 AM 69.8 °F 28.4 °F 21% 29.84 in 10.0 mi SW 21.9 mph 26.5 mph N/A   Clear
11:15 AM 69.8 °F 28.4 °F 21% 29.84 in 10.0 mi SW 23.0 mph - N/A   Clear
11:35 AM 71.6 °F 28.4 °F 20% 29.84 in 10.0 mi SW 27.6 mph 32.2 mph N/A   Clear
11:55 AM 71.6 °F 30.2 °F 22% 29.83 in 10.0 mi SW 27.6 mph 32.2 mph N/A   Clear
12:15 PM 73.4 °F 32.0 °F 22% 29.83 in 10.0 mi SW 26.5 mph 34.5 mph N/A   Clear
12:35 PM 73.4 °F 32.0 °F 22% 29.82 in 10.0 mi SW 28.8 mph 34.5 mph N/A   Clear
12:55 PM 73.4 °F 32.0 °F 22% 29.81 in 10.0 mi WSW 26.5 mph 33.4 mph N/A   Clear
1:15 PM 73.4 °F 32.0 °F 22% 29.80 in 10.0 mi WSW 27.6 mph 31.1 mph N/A   Clear
1:35 PM 75.2 °F 32.0 °F 21% 29.78 in 10.0 mi SW 24.2 mph 34.5 mph N/A   Clear
1:55 PM 77.0 °F 32.0 °F 19% 29.77 in 10.0 mi WSW 24.2 mph 32.2 mph N/A   Clear
2:15 PM 77.0 °F 30.2 °F 18% 29.77 in 10.0 mi WSW 27.6 mph 35.7 mph N/A   Clear
2:35 PM 75.2 °F 30.2 °F 19% 29.77 in 10.0 mi SW 28.8 mph 36.8 mph N/A   Clear
2:55 PM 75.2 °F 32.0 °F 21% 29.76 in 10.0 mi WSW 23.0 mph 36.8 mph N/A   Clear
3:15 PM 77.0 °F 32.0 °F 19% 29.76 in 10.0 mi SW 27.6 mph 33.4 mph N/A   Clear
3:35 PM 77.0 °F 30.2 °F 18% 29.76 in 10.0 mi WSW 28.8 mph 38.0 mph N/A   Clear
3:55 PM 77.0 °F 30.2 °F 18% 29.75 in 10.0 mi SSW 27.6 mph 34.5 mph N/A   Clear
4:15 PM 77.0 °F 32.0 °F 19% 29.76 in 10.0 mi SW 23.0 mph 31.1 mph N/A   Clear
4:35 PM 75.2 °F 32.0 °F 21% 29.75 in 10.0 mi SW 21.9 mph 31.1 mph N/A   Clear
4:55 PM 73.4 °F 33.8 °F 23% 29.76 in 10.0 mi SW 26.5 mph 33.4 mph N/A   Clear
5:15 PM 73.4 °F 33.8 °F 23% 29.76 in 10.0 mi SW 29.9 mph 35.7 mph N/A   Clear
5:35 PM 71.6 °F 33.8 °F 25% 29.76 in 10.0 mi SW 21.9 mph 26.5 mph N/A   Clear
5:55 PM 69.8 °F 33.8 °F 27% 29.77 in 10.0 mi SW 18.4 mph - N/A   Clear
6:15 PM 69.8 °F 35.6 °F 28% 29.77 in 10.0 mi SW 20.7 mph 26.5 mph N/A   Clear
6:35 PM 68.0 °F 35.6 °F 30% 29.78 in 10.0 mi SW 20.7 mph 26.5 mph N/A   Clear
6:55 PM 68.0 °F 35.6 °F 30% 29.78 in 10.0 mi SW 20.7 mph 26.5 mph N/A   Clear
7:15 PM 66.2 °F 35.6 °F 32% 29.78 in 10.0 mi SSW 20.7 mph - N/A   Clear
7:35 PM 66.2 °F 35.6 °F 32% 29.79 in 10.0 mi SSW 21.9 mph 28.8 mph N/A   Clear
7:55 PM 66.2 °F 35.6 °F 32% 29.79 in 10.0 mi SW 24.2 mph 28.8 mph N/A   Clear
8:15 PM 64.4 °F 35.6 °F 34% 29.80 in 10.0 mi SW 20.7 mph - N/A   Clear
8:35 PM 64.4 °F 35.6 °F 34% 29.80 in 10.0 mi SW 17.3 mph - N/A   Clear
8:55 PM 64.4 °F 35.6 °F 34% 29.80 in 10.0 mi SW 21.9 mph - N/A   Clear
9:15 PM 64.4 °F 35.6 °F 34% 29.80 in 10.0 mi SW 19.6 mph - N/A   Clear
9:35 PM 64.4 °F 35.6 °F 34% 29.81 in 10.0 mi SW 23.0 mph 28.8 mph N/A   Clear
9:55 PM 62.6 °F 35.6 °F 37% 29.81 in 10.0 mi SW 23.0 mph 27.6 mph N/A   Clear
10:15 PM 62.6 °F 37.4 °F 39% 29.81 in 10.0 mi SW 23.0 mph - N/A   Clear
10:35 PM 62.6 °F 37.4 °F 39% 29.82 in 10.0 mi SW 20.7 mph 27.6 mph N/A   Clear
10:55 PM 60.8 °F 37.4 °F 42% 29.81 in 10.0 mi SW 20.7 mph 24.2 mph N/A   Clear
11:15 PM 60.8 °F 37.4 °F 42% 29.80 in 10.0 mi SW 18.4 mph 23.0 mph N/A   Clear
11:35 PM 60.8 °F 37.4 °F 42% 29.80 in 10.0 mi SW 18.4 mph - N/A   Clear
11:55 PM 59.0 °F 37.4 °F 45% 29.80 in 10.0 mi SW 18.4 mph - N/A   Clear